Temperature
21 20 20 19 19 18 18 18 18 17 17 16 16 16 16 16 16 15 15 16 16 15 15 15 15 15 15 15 15 15 15 15 15 15 15 15 15 15 14 14 14 14 14
21 20 20 19 19 18 18 18 17 17 17 16 16 16 16 16 16 15 15 15 15 15 15 15 15 15 15 15 15 15 15 15 15 15 15 14 14 14 14 14 14 14 13
21 20 20 19 19 18 18 18 17 17 16 16 16 16 16 16 16 15 15 15 15 15 15 15 15 15 15 15 15 15 15 15 15 15 15 15 14 14 14 14 14 14 13
21 21 20 19 19 18 18 17 17 17 16 16 16 16 16 16 15 15 15 15 15 15 15 15 15 15 15 15 15 15 15 15 15 15 15 15 15 14 14 14 14 13 13
21 21 20 19 19 18 18 17 17 17 16 16 16 16 16 15 15 15 15 15 15 15 15 15 15 15 15 15 15 15 15 14 14 14 15 15 15 15 14 13 13 13 13
21 20 20 19 18 18 17 17 17 16 16 16 16 16 15 15 15 15 15 15 15 15 15 15 15 15 15 15 15 15 15 14 14 14 14 14 14 14 14 14 13 13 13
21 20 19 19 18 18 17 17 17 16 16 16 16 16 15 15 15 15 15 15 15 15 14 14 14 15 15 15 15 14 14 14 14 14 14 14 14 14 14 14 13 13 13
21 20 19 18 18 17 17 17 17 16 16 16 16 16 16 15 15 15 15 15 15 15 15 14 14 14 14 14 14 14 14 14 14 14 14 14 14 14 14 14 14 13 13
21 20 19 18 18 17 17 17 16 16 16 16 16 16 16 15 15 15 15 15 15 15 14 14 14 14 14 14 14 14 14 14 14 14 14 14 14 14 14 14 14 13 13
21 20 19 18 18 17 17 17 16 16 16 16 16 16 15 15 15 15 15 15 15 15 14 14 14 14 14 14 14 14 14 14 14 14 14 14 14 14 14 14 14 14 13
21 20 19 19 18 17 17 17 16 16 16 16 16 15 15 15 15 15 15 15 15 14 14 14 14 14 14 14 14 14 14 14 14 14 14 14 13 13 13 13 13 13 13
21 20 19 19 18 18 17 17 16 16 16 16 15 15 15 15 15 15 15 15 14 14 14 14 14 14 14 14 14 14 14 14 14 13 13 13 13 13 13 13 13 13 13
20 20 19 19 18 18 17 17 17 16 16 16 15 15 15 15 15 15 15 15 14 14 14 14 14 14 14 14 14 14 14 13 13 13 13 13 13 13 13 13 13 13 13
20 19 19 18 18 17 17 17 16 16 16 16 15 15 15 15 15 15 14 14 14 14 14 14 14 14 14 14 13 13 13 13 13 13 13 13 13 13 13 13 13 13 12
20 19 18 18 18 17 17 17 16 16 16 16 15 15 15 15 15 14 14 14 14 14 14 14 14 14 14 14 13 13 13 13 13 13 13 13 13 13 13 13 13 12 12
19 19 18 18 17 17 17 17 16 16 16 15 15 15 15 15 15 14 14 14 14 14 14 14 14 14 14 13 13 13 13 13 13 13 13 12 13 12 12 12 12 12 12
19 19 18 18 17 17 17 16 16 16 16 15 15 15 15 14 14 14 14 14 14 14 13 13 13 13 13 13 13 13 13 13 13 13 12 12 12 12 12 12 12 12 12
18 18 18 17 17 17 16 16 16 16 15 15 15 15 14 14 14 14 14 13 13 13 13 13 13 13 13 13 13 13 13 12 12 12 12 12 12 12 12 12 12 12 12
18 17 17 17 17 16 16 16 16 15 15 15 15 14 14 14 13 13 13 13 13 13 13 13 13 13 13 13 13 13 13 12 12 12 12 12 12 12 12 12 12 12 11
17 17 17 16 16 16 16 15 15 15 15 14 14 14 14 14 13 13 13 13 13 13 13 13 13 13 13 13 13 13 12 12 12 12 12 12 12 12 12 12 11 11 11
16 16 16 16 15 15 15 15 14 14 14 14 14 14 14 13 13 13 13 13 13 13 13 13 12 13 13 13 12 12 12 12 12 12 12 12 12 12 11 11 11 11 11
16 15 15 15 15 15 15 14 14 14 14 14 14 13 13 13 13 13 12 12 12 12 12 12 12 12 12 12 12 12 12 12 12 12 12 12 12 11 11 11 11 11 10
15 15 15 14 14 14 14 14 14 14 14 13 13 13 13 13 13 12 12 12 12 12 12 12 12 12 12 12 12 12 12 12 11 11 11 11 11 11 11 10 10 10 10
15 14 14 14 14 14 14 14 14 14 13 13 13 13 12 12 12 12 12 12 12 12 12 12 12 12 12 11 11 11 11 11 11 11 11 11 10 10 10 10 10 10 10
14 14 14 14 13 13 13 13 13 13 13 12 12 12 12 12 12 12 12 12 12 11 11 11 11 11 11 11 11 11 11 11 11 11 10 10 10 10 10 10 10 10 9
14 14 13 13 13 13 12 13 13 12 12 12 12 12 11 11 11 11 11 11 11 11 11 11 11 11 11 11 11 11 11 11 10 10 10 10 9 9 9 9 9 9 9
Wind_Speed
8 7 7 6 5 5 5 5 4 5 4 3 2 2 2 2 2 2 3 4 4 4 3 3 3 3 2 3 3 3 2 2 2 3 2 3 3 3 2 3 4 6 7
8 8 7 7 5 5 4 5 4 5 4 2 2 2 2 2 2 2 4 4 4 3 2 2 2 2 2 2 2 3 1 1 1 1 1 1 3 3 2 2 3 4 6
8 8 8 7 6 5 5 4 4 5 4 4 2 2 2 2 2 2 2 3 4 4 3 3 2 2 2 2 2 2 2 0 1 1 1 1 1 1 2 2 3 3 3
6 7 7 7 6 5 5 5 4 4 4 4 3 2 2 1 1 1 1 1 2 2 2 2 3 2 1 2 2 2 2 1 1 1 1 1 2 2 1 2 2 3 4
6 7 6 6 6 6 5 4 4 4 3 3 3 1 1 1 1 2 2 1 1 1 1 2 2 1 1 1 1 2 1 1 0 0 0 1 0 1 2 0 1 2 2
6 7 6 6 6 6 5 4 4 4 3 3 3 3 2 1 1 1 2 1 1 0 1 1 1 1 1 1 2 1 1 0 1 1 0 0 0 0 1 1 1 1 1
7 7 7 7 6 6 5 4 5 4 3 3 3 3 2 2 2 1 2 2 2 1 1 1 1 1 1 2 2 1 1 1 1 1 0 0 0 0 1 2 2 1 0
7 7 8 7 6 6 5 4 4 4 3 3 2 2 3 2 1 1 1 2 2 2 2 2 1 1 1 1 1 1 0 1 1 1 1 0 1 1 1 1 2 1 0
7 8 8 8 6 6 5 4 4 4 4 3 3 2 2 2 2 2 1 1 2 2 2 2 2 2 1 1 1 1 0 0 1 1 1 1 1 1 1 1 2 2 1
7 8 8 8 7 6 5 5 3 3 3 2 2 2 1 2 2 2 2 2 2 2 2 2 3 2 1 1 1 1 1 2 1 1 1 1 1 1 0 0 1 1 2
6 7 7 7 7 6 6 5 4 3 3 3 3 3 3 2 3 3 3 2 2 3 3 2 2 2 2 2 2 2 1 1 1 1 2 1 1 1 0 0 0 1 2
5 6 6 6 6 6 6 5 4 4 3 3 3 3 3 3 3 3 3 3 2 3 3 3 1 2 2 2 2 2 2 1 1 1 2 1 1 1 0 0 0 1 1
4 5 6 5 5 5 4 4 4 3 3 3 3 3 4 3 3 3 3 2 2 2 2 2 2 1 1 1 2 2 2 1 1 1 2 2 2 1 1 1 0 0 1
4 4 4 5 5 5 4 4 3 2 3 3 2 2 2 3 3 3 3 2 2 2 2 2 2 2 1 1 1 1 1 1 1 1 1 1 2 2 2 1 1 1 1
3 4 4 4 4 4 4 4 3 3 2 3 2 2 1 2 2 2 2 2 2 2 2 2 2 1 1 0 0 0 0 1 1 1 1 2 3 3 2 1 1 1 1
2 3 4 4 4 4 4 3 3 3 3 2 2 2 1 1 1 1 1 2 2 2 2 2 2 2 1 1 1 1 1 1 2 1 2 2 3 3 3 3 2 2 2
0 1 2 3 4 4 4 3 3 3 3 3 2 2 2 1 1 1 0 1 2 1 2 2 2 2 2 2 1 1 2 2 2 2 2 1 2 2 1 2 3 2 1
0 1 1 2 2 3 3 3 3 3 3 2 2 2 2 2 1 1 1 2 2 2 2 2 2 2 2 2 2 2 2 2 1 2 2 3 2 1 1 1 1 1 1
1 1 1 1 2 2 2 3 3 3 3 3 3 3 3 3 2 1 2 1 1 1 2 2 2 2 2 3 3 1 2 2 2 1 2 3 3 2 2 2 1 1 0
2 2 2 1 0 1 2 3 3 2 3 3 3 3 3 3 3 2 2 1 1 2 2 2 2 3 2 3 3 2 2 2 2 2 2 3 3 3 3 3 2 2 2
3 3 2 1 1 1 2 2 2 2 2 2 2 2 3 3 3 2 2 2 2 2 2 2 2 2 3 3 3 3 2 3 3 2 2 2 4 4 4 3 3 4 2
3 2 2 2 2 1 2 2 1 1 1 2 2 2 2 2 2 3 2 3 3 3 2 2 2 2 2 3 3 3 4 3 2 2 2 2 3 3 3 3 3 3 1
1 1 1 1 1 1 1 1 1 1 1 2 2 2 2 2 2 3 3 2 2 2 2 2 3 2 2 2 4 4 5 4 3 3 3 4 4 4 3 4 4 3 2
0 0 0 1 1 1 1 1 1 0 0 1 1 1 2 2 1 1 2 2 3 3 3 3 3 2 2 2 2 2 3 4 4 3 3 3 4 4 3 2 3 3 3
1 1 1 2 2 2 1 2 2 2 2 2 1 1 1 1 1 1 1 2 2 3 4 3 3 3 3 3 3 2 3 3 4 2 2 2 2 2 2 2 3 3 2
2 2 2 2 3 2 2 2 2 3 3 3 2 2 1 1 1 1 1 2 2 2 3 3 4 4 4 4 4 4 4 4 4 3 3 4 4 5 4 4 3 3 4
Wind_Direction
157 147 141 136 128 121 116 116 116 102 92 75 69 71 64 76 69 66 63 59 57 69 86 85 84 89 94 103 99 93 72 70 82 77 59 44 60 81 66 63 59 56 68
156 146 144 139 138 127 127 120 110 107 108 106 95 99 92 94 89 62 56 49 52 44 82 98 90 103 100 93 93 94 68 37 75 104 90 57 20 27 57 76 80 66 66
156 154 154 148 143 138 135 132 127 121 118 109 83 72 60 57 69 69 53 41 50 48 47 77 96 113 127 128 125 116 113 354 328 75 111 117 123 7 6 60 77 78 75
143 145 150 148 149 143 142 136 128 122 119 116 107 109 111 108 107 119 112 85 62 56 45 79 102 110 117 139 170 143 152 163 284 330 1 106 138 138 34 7 51 70 77
139 137 137 138 140 135 133 131 131 120 117 130 138 130 99 128 108 111 113 108 76 60 47 80 96 117 125 136 119 87 88 138 168 240 357 14 254 165 152 155 358 40 65
133 133 127 122 121 123 131 140 134 123 133 150 148 148 149 141 120 130 140 155 144 122 61 89 96 128 130 128 122 123 107 76 31 19 46 172 182 162 136 164 177 116 81
142 143 136 132 126 133 146 150 142 140 154 172 160 166 169 167 165 162 167 169 155 169 184 105 79 74 82 97 124 146 167 173 166 193 243 343 352 95 112 137 162 129 149
149 147 143 141 142 145 150 158 156 154 169 184 186 184 168 170 162 189 160 165 159 168 152 128 121 101 110 104 109 116 220 186 165 150 122 71 15 52 80 128 138 148 144
149 148 146 150 154 156 156 167 163 170 179 189 192 202 175 156 176 200 191 181 171 164 146 161 159 138 114 112 113 125 326 50 78 72 71 86 61 60 29 60 132 157 180
149 147 151 156 161 160 163 165 165 174 176 187 184 187 201 194 193 197 208 193 175 165 163 180 162 156 161 150 136 146 144 99 99 112 83 60 76 69 61 9 354 90 158
143 147 152 157 159 159 164 165 172 177 176 190 188 183 201 220 202 203 201 189 175 174 172 187 173 160 173 163 153 168 157 153 178 169 146 157 140 121 55 50 34 48 99
138 145 147 153 157 162 166 170 174 175 180 194 201 188 186 217 215 200 197 194 184 183 180 168 173 176 186 177 177 181 183 198 196 161 147 158 123 113 110 12 121 140 130
138 144 146 152 153 157 164 164 167 169 171 188 212 193 188 198 211 205 192 187 181 178 190 165 164 182 202 169 175 173 181 187 192 171 173 174 157 166 169 159 162 163 122
149 147 149 157 156 161 164 158 160 170 170 176 206 212 196 179 195 198 185 186 191 187 200 186 169 181 193 181 178 164 154 178 197 189 160 168 166 171 175 169 217 134 122
159 162 165 164 165 171 171 163 165 174 179 177 195 218 207 176 188 187 186 179 180 208 207 192 165 160 168 154 88 179 167 175 165 118 96 77 67 67 75 128 196 143 145
191 183 175 179 189 183 178 169 170 170 169 174 183 185 178 157 166 176 186 177 176 202 213 186 174 164 178 100 70 34 283 225 193 158 126 119 90 76 65 64 76 132 175
203 194 189 187 196 200 184 177 180 169 178 186 172 154 152 160 182 191 184 210 183 197 211 202 184 175 153 151 183 261 281 247 210 169 153 134 106 96 102 84 68 62 104
195 220 227 215 204 206 186 177 176 178 188 188 170 171 172 165 173 185 201 220 209 209 211 208 190 172 187 190 212 250 252 254 219 174 173 161 151 157 115 138 108 44 18
340 277 262 253 217 199 184 170 177 184 186 196 187 180 179 172 174 194 206 216 215 209 205 200 192 186 207 200 192 203 225 243 229 208 170 158 161 180 141 138 164 174 296
31 27 18 24 46 164 159 159 181 191 199 200 203 187 179 177 182 201 210 204 202 199 198 209 200 185 196 203 197 201 205 228 235 228 209 182 178 184 176 181 187 202 228
36 34 48 45 59 141 148 157 179 201 198 194 206 185 175 179 178 187 204 203 196 196 211 211 203 189 183 196 201 200 212 230 232 223 229 211 190 199 210 205 204 217 211
31 30 45 39 35 75 134 166 206 224 185 187 205 189 180 190 176 179 204 203 193 200 214 220 211 202 192 184 210 209 222 250 224 223 221 209 197 208 216 217 223 209 183
32 32 45 60 47 74 126 189 271 296 207 194 197 186 184 177 172 181 198 203 194 200 214 218 220 216 206 206 212 216 224 238 237 239 225 213 211 213 216 225 219 199 191
360 11 304 214 207 209 192 188 175 232 217 240 206 196 195 187 189 195 198 196 203 209 216 223 227 219 213 216 214 220 224 229 241 253 238 216 206 208 215 218 221 216 206
260 214 225 234 226 226 220 177 174 202 223 236 229 226 214 200 206 218 248 225 215 211 215 226 221 214 229 234 218 215 224 224 222 215 207 198 199 208 210 213 222 225 218
271 243 224 228 232 225 223 202 188 206 217 228 224 212 207 199 184 202 302 307 267 236 215 224 230 235 222 218 219 228 236 231 212 193 213 215 215 215 215 216 218 219 218
Height
1534 1536 1537 1539 1540 1541 1542 1543 1543 1544 1544 1545 1545 1546 1546 1547 1547 1547 1548 1548 1548 1548 1548 1549 1549 1550 1550 1550 1551 1551 1551 1552 1552 1552 1552 1553 1553 1553 1553 1552 1552 1551 1550
1532 1534 1536 1538 1539 1541 1542 1542 1543 1544 1544 1544 1545 1546 1547 1547 1547 1547 1547 1548 1548 1548 1549 1549 1549 1550 1550 1551 1551 1552 1552 1553 1553 1553 1552 1553 1555 1554 1554 1554 1553 1552 1551
1530 1532 1535 1537 1538 1540 1541 1542 1543 1543 1544 1544 1545 1546 1546 1547 1547 1547 1547 1548 1548 1548 1548 1549 1549 1550 1550 1551 1551 1552 1552 1552 1553 1553 1554 1554 1554 1554 1555 1554 1554 1553 1552
1528 1531 1533 1535 1537 1539 1540 1541 1542 1543 1543 1544 1545 1545 1546 1547 1547 1547 1547 1547 1548 1548 1548 1549 1549 1550 1550 1551 1551 1552 1552 1553 1553 1553 1553 1554 1554 1554 1555 1555 1555 1554 1553
1527 1530 1532 1534 1536 1538 1539 1541 1542 1542 1543 1544 1544 1545 1546 1546 1547 1547 1547 1547 1548 1548 1548 1549 1549 1549 1550 1550 1551 1551 1552 1552 1552 1552 1553 1553 1553 1554 1554 1554 1555 1554 1553
1527 1529 1531 1534 1536 1537 1538 1540 1541 1542 1542 1543 1544 1545 1545 1546 1546 1547 1547 1547 1547 1548 1548 1548 1548 1549 1549 1550 1550 1551 1551 1551 1552 1552 1552 1553 1553 1553 1553 1553 1553 1554 1553
1525 1528 1530 1533 1534 1536 1537 1539 1540 1541 1542 1542 1543 1544 1544 1545 1545 1546 1546 1546 1547 1547 1547 1548 1548 1548 1549 1549 1549 1550 1550 1551 1551 1551 1551 1552 1552 1552 1552 1552 1552 1553 1553
1524 1527 1529 1531 1533 1535 1536 1537 1539 1540 1541 1541 1542 1542 1543 1544 1544 1545 1545 1546 1546 1546 1547 1547 1547 1548 1548 1548 1549 1549 1549 1550 1550 1550 1551 1551 1551 1551 1551 1551 1552 1552 1552
1523 1525 1528 1530 1532 1534 1535 1536 1537 1538 1539 1540 1541 1541 1542 1542 1543 1543 1544 1545 1545 1546 1546 1546 1546 1547 1547 1548 1548 1548 1548 1549 1549 1549 1549 1550 1550 1550 1550 1551 1551 1552 1551
1521 1524 1526 1529 1531 1532 1534 1535 1536 1537 1538 1538 1539 1539 1540 1541 1541 1542 1542 1543 1544 1544 1545 1545 1545 1546 1546 1547 1547 1547 1547 1547 1548 1548 1548 1548 1548 1548 1549 1549 1550 1550 1550
1520 1523 1525 1527 1529 1531 1532 1534 1535 1535 1536 1537 1537 1537 1538 1539 1539 1540 1541 1541 1542 1543 1543 1544 1544 1545 1545 1545 1546 1546 1546 1546 1546 1547 1547 1547 1547 1547 1548 1548 1548 1548 1548
1519 1522 1524 1526 1528 1529 1531 1532 1533 1534 1534 1535 1536 1536 1536 1537 1537 1538 1539 1540 1540 1541 1542 1542 1543 1543 1544 1544 1544 1544 1545 1545 1545 1545 1545 1546 1546 1546 1546 1546 1546 1546 1546
1518 1520 1522 1524 1526 1527 1529 1530 1531 1532 1533 1533 1534 1534 1534 1535 1535 1536 1537 1538 1539 1540 1540 1541 1541 1541 1542 1542 1543 1543 1543 1543 1544 1544 1544 1544 1544 1544 1544 1544 1544 1544 1544
1517 1519 1521 1523 1524 1526 1527 1528 1529 1530 1531 1531 1532 1532 1532 1533 1533 1534 1535 1536 1537 1538 1538 1539 1539 1539 1540 1540 1541 1541 1541 1542 1542 1542 1542 1542 1542 1542 1542 1542 1542 1542 1542
1516 1517 1519 1520 1522 1524 1525 1526 1527 1528 1529 1529 1530 1530 1530 1531 1531 1532 1533 1533 1534 1535 1536 1537 1537 1537 1538 1538 1539 1539 1539 1540 1540 1540 1540 1540 1540 1540 1540 1540 1540 1540 1540
1514 1516 1517 1519 1520 1522 1523 1524 1525 1526 1527 1527 1528 1528 1528 1529 1529 1530 1531 1531 1532 1533 1534 1535 1535 1535 1535 1536 1536 1537 1537 1537 1537 1537 1537 1538 1538 1537 1537 1537 1537 1537 1537
1513 1514 1515 1516 1517 1519 1520 1521 1522 1523 1524 1525 1525 1526 1526 1526 1527 1528 1528 1529 1529 1530 1531 1532 1532 1532 1533 1533 1534 1534 1534 1535 1535 1535 1535 1535 1535 1535 1535 1534 1534 1534 1534
1511 1512 1513 1514 1515 1516 1517 1518 1519 1520 1522 1522 1523 1523 1524 1524 1525 1525 1525 1526 1526 1527 1528 1528 1529 1529 1530 1530 1531 1531 1531 1532 1532 1532 1532 1532 1532 1532 1532 1531 1531 1531 1530
1509 1509 1510 1510 1511 1513 1514 1515 1516 1518 1519 1519 1520 1520 1521 1522 1522 1523 1523 1523 1523 1524 1524 1525 1526 1526 1526 1527 1527 1528 1528 1528 1529 1529 1529 1529 1529 1529 1529 1528 1528 1527 1527
1506 1506 1506 1507 1508 1509 1511 1512 1513 1514 1515 1516 1517 1518 1519 1519 1519 1520 1520 1521 1521 1521 1522 1522 1523 1523 1523 1524 1524 1524 1524 1525 1525 1525 1525 1526 1526 1525 1525 1525 1525 1524 1524
1504 1504 1504 1505 1506 1507 1508 1509 1511 1512 1513 1514 1515 1515 1516 1516 1517 1517 1518 1518 1518 1519 1519 1520 1520 1520 1520 1520 1521 1521 1521 1521 1521 1521 1521 1522 1522 1522 1522 1522 1522 1521 1521
1503 1502 1503 1503 1504 1505 1506 1507 1507 1509 1510 1511 1512 1512 1513 1514 1514 1515 1515 1515 1516 1516 1517 1517 1517 1517 1517 1517 1517 1518 1518 1518 1518 1517 1518 1518 1518 1518 1518 1518 1518 1518 1518
1501 1501 1501 1501 1502 1503 1503 1504 1505 1506 1507 1508 1509 1509 1510 1511 1511 1512 1512 1512 1513 1513 1513 1514 1514 1514 1514 1514 1514 1514 1514 1514 1514 1514 1514 1514 1514 1514 1514 1514 1515 1515 1514
1499 1499 1499 1499 1500 1500 1501 1502 1502 1503 1504 1505 1506 1506 1507 1507 1508 1508 1509 1509 1509 1509 1510 1510 1510 1510 1510 1510 1510 1510 1510 1510 1510 1510 1510 1510 1510 1510 1510 1510 1511 1510 1510
1497 1497 1497 1497 1497 1498 1498 1499 1499 1500 1501 1502 1502 1503 1503 1504 1504 1504 1505 1505 1505 1506 1506 1506 1507 1506 1506 1506 1506 1506 1506 1506 1506 1505 1505 1505 1505 1505 1505 1506 1506 1506 1506
1494 1494 1494 1494 1494 1495 1495 1496 1496 1497 1498 1498 1499 1500 1500 1500 1500 1500 1501 1501 1502 1502 1502 1502 1503 1502 1503 1502 1502 1502 1502 1502 1502 1501 1500 1500 1500 1500 1501 1501 1501 1502 1502